3U1025 ZPPP-ZLXN

Flight info

Callsign 3U1025
Flight time N/A
Altitude 34100
Route DADOL W144 IGNAK W179 OMBON W195 ORUNA V117 IKOMU UPVOP
Aircraft A321/M-VGDW/C

Departure

Time 2026-05-07 07:40
Airport Kunming Changshui International Airport (ZPPP)

Arrival

Time N/A
Airport Xining Caojiabao International Airport (ZLXN)
Time Latitude Longitude Altitude Speed Heading
2026-05-07 07:29 25.10257 102.92854 6915 ft 0 kts 129°
2026-05-07 07:31 25.10262 102.92847 6915 ft 2 kts 129°
2026-05-07 07:32 25.10271 102.92834 6915 ft 2 kts 129°
2026-05-07 07:32 25.10280 102.92822 6915 ft 2 kts 129°
2026-05-07 07:32 25.10290 102.92809 6915 ft 2 kts 129°
2026-05-07 07:32 25.10299 102.92796 6915 ft 2 kts 129°
2026-05-07 07:33 25.10308 102.92783 6915 ft 2 kts 129°
2026-05-07 07:33 25.10318 102.92770 6915 ft 2 kts 129°
2026-05-07 07:33 25.10327 102.92757 6915 ft 2 kts 129°
2026-05-07 07:33 25.10337 102.92744 6915 ft 2 kts 143°
2026-05-07 07:34 25.10351 102.92738 6915 ft 2 kts 172°
2026-05-07 07:34 25.10366 102.92739 6915 ft 2 kts 199°
2026-05-07 07:34 25.10375 102.92743 6915 ft 0 kts 216°
2026-05-07 07:34 25.10380 102.92748 6915 ft 0 kts 218°
2026-05-07 07:36 25.10345 102.92699 6915 ft 14 kts 256°
2026-05-07 07:36 25.10403 102.92588 6915 ft 18 kts 302°
2026-05-07 07:36 25.10477 102.92486 6915 ft 15 kts 310°
2026-05-07 07:36 25.10546 102.92405 6915 ft 12 kts 315°
2026-05-07 07:37 25.10536 102.92336 6915 ft 9 kts 222°
2026-05-07 07:37 25.10488 102.92293 6915 ft 7 kts 218°
2026-05-07 07:37 25.10444 102.92256 6915 ft 9 kts 218°
2026-05-07 07:37 25.10376 102.92197 6915 ft 14 kts 218°
2026-05-07 07:38 25.10282 102.92115 6915 ft 19 kts 219°
2026-05-07 07:38 25.10167 102.92014 6916 ft 21 kts 218°
2026-05-07 07:38 25.10096 102.91949 6915 ft 13 kts 242°
2026-05-07 07:38 25.10130 102.91843 6915 ft 17 kts 309°
2026-05-07 07:39 25.10191 102.91762 6915 ft 12 kts 308°
2026-05-07 07:39 25.10272 102.91742 6915 ft 14 kts 32°
2026-05-07 07:39 25.10407 102.91851 6915 ft 48 kts 39°
2026-05-07 07:39 25.10833 102.92233 6916 ft 108 kts 38°
2026-05-07 07:40 25.11591 102.92862 6916 ft 159 kts 37°
2026-05-07 07:40 25.12536 102.93720 7029 ft 189 kts 34°
2026-05-07 07:40 25.13656 102.94585 7411 ft 202 kts 33°
2026-05-07 07:40 25.14869 102.95409 7962 ft 211 kts 29°
2026-05-07 07:41 25.16258 102.96032 8589 ft 217 kts 17°
2026-05-07 07:41 25.17689 102.96529 9171 ft 218 kts 21°
2026-05-07 07:41 25.19190 102.97124 9321 ft 236 kts 22°
2026-05-07 07:41 25.19846 102.97411 9433 ft 242 kts 23°
2026-05-07 07:42 25.20536 102.97721 9545 ft 248 kts 24°
2026-05-07 07:42 25.21557 102.98193 9707 ft 256 kts 24°
2026-05-07 07:42 25.22866 102.98811 9936 ft 266 kts 24°
2026-05-07 07:42 25.23994 102.99345 10204 ft 271 kts 24°
2026-05-07 07:43 25.25734 103.00176 10670 ft 276 kts 23°
2026-05-07 07:43 25.27498 103.01022 11125 ft 281 kts 22°
2026-05-07 07:43 25.29316 103.01888 11616 ft 284 kts 22°
2026-05-07 07:43 25.31163 103.02681 12045 ft 287 kts 10°
2026-05-07 07:44 25.33146 103.02605 12442 ft 285 kts 337°
2026-05-07 07:44 25.34777 103.01477 12907 ft 278 kts 309°
2026-05-07 07:44 25.35933 102.99789 13412 ft 276 kts 301°
2026-05-07 07:44 25.37035 102.98066 13895 ft 278 kts 302°
2026-05-07 07:45 25.38180 102.96316 14387 ft 279 kts 302°
2026-05-07 07:45 25.39332 102.94586 14871 ft 280 kts 302°
2026-05-07 07:45 25.40482 102.92864 15337 ft 280 kts 301°
2026-05-07 07:45 25.41622 102.91067 15584 ft 290 kts 300°
2026-05-07 07:46 25.42783 102.89203 15791 ft 302 kts 300°
2026-05-07 07:46 25.44004 102.87247 15993 ft 313 kts 300°
2026-05-07 07:46 25.45264 102.85237 16183 ft 324 kts 301°
2026-05-07 07:46 25.46567 102.83161 16376 ft 335 kts 301°
2026-05-07 07:47 25.48033 102.81086 16539 ft 351 kts 312°
2026-05-07 07:47 25.50147 102.79584 16698 ft 372 kts 334°
2026-05-07 07:47 25.52722 102.79009 16865 ft 392 kts 355°
2026-05-07 07:47 25.55512 102.79425 17061 ft 407 kts
2026-05-07 07:48 25.58307 102.80061 17236 ft 416 kts
2026-05-07 07:48 25.61169 102.80706 17488 ft 423 kts
2026-05-07 07:48 25.64101 102.81346 17878 ft 425 kts
2026-05-07 07:48 25.66969 102.81958 18252 ft 427 kts
2026-05-07 07:49 25.69925 102.82637 18630 ft 431 kts 10°
2026-05-07 07:49 25.72787 102.83615 18994 ft 435 kts 17°
2026-05-07 07:49 25.75580 102.84957 19374 ft 439 kts 23°
2026-05-07 07:49 25.78291 102.86515 19709 ft 442 kts 25°
2026-05-07 07:50 25.81035 102.88156 20046 ft 445 kts 25°
2026-05-07 07:50 25.83751 102.89790 20361 ft 447 kts 25°
2026-05-07 07:50 25.86474 102.91420 20675 ft 449 kts 25°
2026-05-07 07:50 25.89266 102.93086 20996 ft 451 kts 25°
2026-05-07 07:51 25.92000 102.94717 21288 ft 453 kts 24°
2026-05-07 07:51 25.94809 102.96387 21574 ft 455 kts 25°
2026-05-07 07:51 25.97601 102.98045 21856 ft 458 kts 24°
2026-05-07 07:51 26.00441 102.99733 22110 ft 461 kts 24°
2026-05-07 07:52 26.03276 103.01417 22370 ft 463 kts 24°
2026-05-07 07:52 26.06096 103.03095 22656 ft 464 kts 24°
2026-05-07 07:52 26.08970 103.04806 22944 ft 466 kts 24°
2026-05-07 07:52 26.11830 103.06509 23199 ft 468 kts 24°
2026-05-07 07:53 26.14675 103.08205 23438 ft 470 kts 24°
2026-05-07 07:53 26.17594 103.09946 23708 ft 471 kts 24°
2026-05-07 07:53 26.20491 103.11674 23993 ft 473 kts 24°
2026-05-07 07:53 26.23390 103.13404 24245 ft 475 kts 24°
2026-05-07 07:54 26.26293 103.15138 24497 ft 477 kts 24°
2026-05-07 07:54 26.29241 103.16899 24745 ft 479 kts 24°
2026-05-07 07:54 26.32201 103.18668 24987 ft 481 kts 24°
2026-05-07 07:54 26.35153 103.20435 25225 ft 483 kts 24°
2026-05-07 07:55 26.38118 103.22208 25453 ft 485 kts 24°
2026-05-07 07:55 26.41066 103.23976 25666 ft 487 kts 24°
2026-05-07 07:55 26.44074 103.25781 25879 ft 490 kts 24°
2026-05-07 07:55 26.47068 103.27577 26120 ft 491 kts 24°
2026-05-07 07:56 26.50107 103.29400 26340 ft 493 kts 23°
2026-05-07 07:56 26.53157 103.31152 26558 ft 494 kts 22°
2026-05-07 07:56 26.56218 103.32851 26781 ft 495 kts 21°
2026-05-07 07:56 26.59322 103.34558 27017 ft 496 kts 21°
2026-05-07 07:57 26.62445 103.36281 27275 ft 497 kts 21°
2026-05-07 07:57 26.65517 103.37983 27574 ft 496 kts 21°
2026-05-07 07:57 26.68590 103.39690 27899 ft 495 kts 21°
2026-05-07 07:57 26.71685 103.41414 28196 ft 495 kts 21°
2026-05-07 07:58 26.74754 103.43125 28478 ft 495 kts 21°
2026-05-07 07:58 26.77855 103.44857 28791 ft 494 kts 21°
2026-05-07 07:58 26.80938 103.46581 29096 ft 493 kts 21°
2026-05-07 07:58 26.83997 103.48292 29431 ft 492 kts 21°
2026-05-07 07:59 26.87027 103.49989 29781 ft 490 kts 20°
2026-05-07 07:59 26.90088 103.51704 30112 ft 488 kts 20°
2026-05-07 07:59 26.93109 103.53398 30420 ft 487 kts 20°
2026-05-07 07:59 26.96129 103.55092 30751 ft 486 kts 20°
2026-05-07 08:00 26.99154 103.56789 31065 ft 484 kts 20°
2026-05-07 08:00 27.02178 103.58485 31389 ft 483 kts 20°
2026-05-07 08:00 27.05163 103.60163 31706 ft 481 kts 20°
2026-05-07 08:00 27.08173 103.61855 31968 ft 482 kts 20°
2026-05-07 08:01 27.11184 103.63545 32061 ft 485 kts 20°
2026-05-07 08:01 27.17333 103.67001 32240 ft 492 kts 20°
2026-05-07 08:02 27.23493 103.70474 32401 ft 498 kts 20°
2026-05-07 08:02 27.29732 103.73998 32585 ft 501 kts 20°
2026-05-07 08:02 27.32858 103.75737 32751 ft 500 kts 19°
2026-05-07 08:03 27.35993 103.77380 32929 ft 499 kts 18°
2026-05-07 08:03 27.39186 103.79025 33119 ft 498 kts 18°
2026-05-07 08:03 27.42341 103.80645 33321 ft 497 kts 18°
2026-05-07 08:03 27.45477 103.82259 33501 ft 497 kts 18°
2026-05-07 08:04 27.48626 103.83893 33682 ft 497 kts 18°
2026-05-07 08:04 27.51735 103.85517 33867 ft 496 kts 18°
2026-05-07 08:04 27.54870 103.87160 34016 ft 496 kts 18°
2026-05-07 08:04 27.58002 103.88803 34184 ft 496 kts 18°
2026-05-07 08:05 27.61179 103.90471 34356 ft 495 kts 18°
2026-05-07 08:05 27.67414 103.93745 34356 ft 495 kts 18°
2026-05-07 08:06 27.73690 103.97042 34343 ft 495 kts 18°
2026-05-07 08:06 27.79942 104.00329 34322 ft 495 kts 18°
2026-05-07 08:07 27.86218 104.03634 34307 ft 496 kts 18°
2026-05-07 08:07 27.92450 104.06920 34297 ft 497 kts 18°
2026-05-07 08:08 27.98723 104.10235 34286 ft 497 kts 18°
2026-05-07 08:08 28.04989 104.13550 34279 ft 496 kts 18°
2026-05-07 08:09 28.11159 104.16818 34278 ft 497 kts 18°
2026-05-07 08:09 28.17453 104.20157 34282 ft 497 kts 18°
2026-05-07 08:10 28.23729 104.23492 34274 ft 496 kts 18°
2026-05-07 08:10 28.29973 104.26760 34260 ft 494 kts 15°
2026-05-07 08:11 28.36466 104.29192 34238 ft 485 kts
2026-05-07 08:11 28.43103 104.30418 34210 ft 475 kts 356°
2026-05-07 08:12 28.49621 104.30496 34188 ft 467 kts 349°
2026-05-07 08:12 28.56137 104.30111 34183 ft 467 kts 349°
2026-05-07 08:13 28.62657 104.29724 34192 ft 468 kts 349°
2026-05-07 08:13 28.69164 104.29363 34201 ft 469 kts 349°
2026-05-07 08:14 28.75741 104.29005 34217 ft 468 kts 349°
2026-05-07 08:14 28.82337 104.28648 34207 ft 468 kts 349°
2026-05-07 08:15 28.88876 104.28291 34182 ft 468 kts 349°
2026-05-07 08:15 28.95369 104.27934 34150 ft 469 kts 349°
2026-05-07 08:16 29.01904 104.27575 34125 ft 470 kts 349°
2026-05-07 08:16 29.08465 104.27215 34119 ft 470 kts 348°
2026-05-07 08:17 29.14303 104.26893 34124 ft 470 kts 349°
2026-05-07 08:17 29.20916 104.26527 34125 ft 470 kts 349°
2026-05-07 08:18 29.27543 104.26524 34130 ft 477 kts 355°
2026-05-07 08:18 29.34256 104.27334 34136 ft 483 kts 360°
2026-05-07 08:19 29.40948 104.28476 34136 ft 484 kts
2026-05-07 08:19 29.45614 104.29282 34141 ft 485 kts
2026-05-07 08:20 29.50483 104.30119 34149 ft 484 kts